COSMOS 2251 DEB, 40239

Orbit data source: Space-Track

COSMOS 2251 DEB, 40239 is space debris in LEO originally from a launch on Wed, 16 Jun 1993 UTC launched from the Plesetsk Missile And Space Complex (PKMTR). The debris from Iridium 33, an American commercial communications satellite, has been tracked extensively since its accidental collision with the defunct Russian satellite Cosmos 2251 in 2009. This event, occurring at high speed in low Earth orbit (LEO), generated thousands of pieces of space debris, significantly increasing the risk of further collisions. The Iridium 33 debris cloud has impacted space traffic management and orbital debris mitigation strategies, making it a subject of ongoing study in space situational awareness.

Loading next visibility...
Identifier
40239, 1993-036BVU
Orbit
LEO
Country
Flag of CISCIS
Related business
Manufacturer
Unknown
Mission
Spacecraft
Bus & Motor
Unknown
Mass
Unknown
Launch date (UTC)
1993-06-16 (33 years ago)
Launch vehicle
Unknown
Launch site
Plesetsk Missile And Space Complex (PKMTR)
Object type
Payload
Rocket body
Debris
Shape & HBR
Unknown shape, 0.1 m
Radar Cross Section
Small (<0.1 m²)

Expand to show TLE details & history
Last TLE update: 2 weeks ago

TLE from 2 weeks ago
0 COSMOS 2251 DEB
1 40239U 93036BVU 26021.26249919  .00002766  00000-0  52723-3 0  9995
2 40239  74.0292 200.1348 0086431 302.4234 238.1099 14.62163076601883
Epoch: 2026-01-21T06:17Z
TLE epoch observation values (Epoch: 2026-01-21T06:17:59.930Z)
Latitude
0.18028°
Longitude
164.95123°
Altitude
721.457 km
Speed
7.478 km/s
True Right ascension
01h 20m 20s
True Declination
0° 10' 45"
Sunlit
Object was in daylight at epoch
Visualization orbit readout
Latitude
Unknown
Longitude
Unknown
Altitude
Unknown
Speed
Unknown
Apparent Right ascension
Unknown
Apparent Declination
Unknown
Sunlit
N/A
Visualization observer readout
Local Sidereal Time
04:13:23
Azimuth
Unknown
Elevation
Unknown
Doppler factor
Unknown
Orbital elements
Apogee altitude
744.831 km
Perigee altitude
622.757 km
Semi-major axis
7,061.931 km
Eccentricity
0.00864
Inclination
74.0292°
RAAN
200.1348°
Arg. of periapsis
302.4234°
True anomaly
237.27377°
Mean anomaly
238.1099°
Eccentric anomaly
237.69136°
Mean motion
3.65728 °/min
Orbital period
98.43 mins
BSTAR
0.00052723
Loading maneuver chart data...
Computing Atmospheric mass density...

Documentation

Showing up to 5 results
|